Hourly Weather Kozodawy

Today, 20 October, Tuesday

Time Temperature Precipitation Wind Pressure Humidity
00:00 +4°C° 0 mm 3 mps 750 mmHg 90%
01:00 +4°C° 0 mm 3 mps 750 mmHg 90%
02:00 +5°C° 0 mm 3 mps 750 mmHg 91%
03:00 +4°C° 0 mm 3 mps 750 mmHg 91%
04:00 +4°C° 0 mm 3 mps 750 mmHg 92%
05:00 +4°C° 0 mm 3 mps 750 mmHg 93%
06:00 +5°C° 0 mm 2 mps 750 mmHg 91%
07:00 +5°C° 0 mm 2 mps 751 mmHg 90%
08:00 +5°C° 0 mm 2 mps 751 mmHg 89%
09:00 +6°C° 0 mm 2 mps 751 mmHg 82%
10:00 +8°C° 0 mm 2 mps 751 mmHg 76%
11:00 +9°C° 0 mm 2 mps 751 mmHg 69%
12:00 +10°C° 0 mm 2 mps 751 mmHg 67%
13:00 +12°C° 0 mm 2 mps 751 mmHg 65%
14:00 +12°C° 0 mm 2 mps 751 mmHg 63%
15:00 +10°C° 0 mm 2 mps 751 mmHg 67%
16:00 +10°C° 0 mm 2 mps 750 mmHg 70%
17:00 +9°C° 0 mm 2 mps 750 mmHg 74%
18:00 +8°C° 0 mm 3 mps 750 mmHg 75%
19:00 +8°C° 0 mm 3 mps 750 mmHg 75%
20:00 +8°C° 0 mm 3 mps 750 mmHg 76%
21:00 +6°C° 0 mm 4 mps 749 mmHg 77%
22:00 +6°C° 0 mm 4 mps 749 mmHg 78%
23:00 +6°C° 0 mm 4 mps 748 mmHg 79%

Tomorrow, 21 October, Wednesday

Time Temperature Precipitation Wind Pressure Humidity
00:00 +6°C° 0 mm 4 mps 748 mmHg 77%
01:00 +6°C° 0 mm 4 mps 748 mmHg 76%
02:00 +6°C° 0 mm 4 mps 748 mmHg 75%
03:00 +6°C° 0 mm 4 mps 748 mmHg 74%
04:00 +6°C° 0 mm 4 mps 747 mmHg 74%
05:00 +6°C° 0 mm 4 mps 747 mmHg 73%
06:00 +6°C° 0 mm 4 mps 747 mmHg 72%
07:00 +6°C° 0 mm 5 mps 747 mmHg 71%
08:00 +7°C° 0 mm 5 mps 747 mmHg 70%
09:00 +8°C° 0 mm 5 mps 746 mmHg 67%
10:00 +9°C° 0 mm 6 mps 746 mmHg 64%
11:00 +10°C° 0 mm 6 mps 746 mmHg 61%
12:00 +11°C° 0 mm 6 mps 746 mmHg 59%
13:00 +13°C° 0 mm 6 mps 746 mmHg 57%
14:00 +14°C° 0 mm 6 mps 746 mmHg 55%
15:00 +13°C° 0 mm 5 mps 746 mmHg 59%
16:00 +12°C° 0 mm 4 mps 745 mmHg 62%
17:00 +11°C° 0 mm 3 mps 745 mmHg 66%
18:00 +11°C° 0 mm 3 mps 745 mmHg 69%
19:00 +10°C° 0 mm 3 mps 745 mmHg 71%
20:00 +9°C° 0 mm 3 mps 745 mmHg 73%
21:00 +9°C° 0 mm 3 mps 745 mmHg 74%
22:00 +8°C° 0 mm 4 mps 745 mmHg 75%
23:00 +8°C° 0 mm 4 mps 745 mmHg 75%

Day after tomorrow, 22 October, Thursday

Time Temperature Precipitation Wind Pressure Humidity
00:00 +7°C° 0 mm 4 mps 745 mmHg 77%
01:00 +7°C° 0 mm 4 mps 745 mmHg 79%
02:00 +7°C° 0 mm 4 mps 746 mmHg 80%
03:00 +7°C° 0 mm 4 mps 745 mmHg 81%
04:00 +7°C° 0 mm 4 mps 745 mmHg 81%
05:00 +7°C° 0 mm 4 mps 745 mmHg 82%
06:00 +7°C° 0 mm 4 mps 745 mmHg 81%
07:00 +7°C° 0 mm 4 mps 746 mmHg 80%
08:00 +8°C° 0 mm 5 mps 746 mmHg 79%
09:00 +9°C° 0 mm 5 mps 746 mmHg 74%
10:00 +12°C° 0 mm 5 mps 746 mmHg 69%
11:00 +14°C° 0 mm 6 mps 746 mmHg 64%
12:00 +15°C° 0 mm 6 mps 746 mmHg 62%
13:00 +16°C° 0 mm 5 mps 746 mmHg 60%
14:00 +16°C° 0 mm 5 mps 746 mmHg 58%
15:00 +15°C° 0 mm 5 mps 746 mmHg 61%
16:00 +14°C° 0 mm 4 mps 746 mmHg 65%
17:00 +13°C° 0 mm 3 mps 745 mmHg 68%
18:00 +13°C° 0 mm 4 mps 745 mmHg 68%
19:00 +12°C° 0 mm 4 mps 745 mmHg 68%
20:00 +11°C° 0 mm 4 mps 745 mmHg 68%
21:00 +11°C° 0 mm 4 mps 745 mmHg 70%
22:00 +10°C° 0 mm 4 mps 745 mmHg 72%
23:00 +10°C° 0 mm 3 mps 745 mmHg 74%

23 October, Friday

Time Temperature Precipitation Wind Pressure Humidity
00:00 +9°C° 0 mm 3 mps 745 mmHg 77%
01:00 +9°C° 0 mm 3 mps 745 mmHg 80%
02:00 +9°C° 0 mm 3 mps 744 mmHg 83%
03:00 +9°C° 0 mm 3 mps 744 mmHg 84%
04:00 +9°C° 0 mm 3 mps 744 mmHg 86%
05:00 +9°C° 0 mm 3 mps 744 mmHg 87%
06:00 +9°C° 0 mm 3 mps 743 mmHg 87%
07:00 +8°C° 0 mm 4 mps 743 mmHg 86%
08:00 +8°C° 0 mm 4 mps 743 mmHg 86%
09:00 +10°C° 0 mm 5 mps 743 mmHg 80%
10:00 +12°C° 0 mm 5 mps 743 mmHg 75%
11:00 +13°C° 0 mm 6 mps 743 mmHg 70%
12:00 +14°C° 0 mm 6 mps 742 mmHg 69%
13:00 +15°C° 0 mm 6 mps 742 mmHg 68%
14:00 +15°C° 0 mm 5 mps 742 mmHg 66%
15:00 +15°C° 0 mm 5 mps 741 mmHg 70%
16:00 +14°C° 0 mm 4 mps 741 mmHg 74%
17:00 +13°C° 0 mm 4 mps 741 mmHg 78%
18:00 +13°C° 0 mm 4 mps 741 mmHg 80%
19:00 +13°C° 0 mm 4 mps 742 mmHg 81%
20:00 +13°C° 0 mm 4 mps 742 mmHg 83%
21:00 +12°C° 0 mm 4 mps 742 mmHg 83%
22:00 +12°C° 0 mm 4 mps 742 mmHg 84%
23:00 +12°C° 0 mm 4 mps 742 mmHg 84%

24 October, Saturday

Time Temperature Precipitation Wind Pressure Humidity
00:00 +12°C° 0.1 mm 4 mps 742 mmHg 85%
01:00 +12°C° 0.1 mm 4 mps 742 mmHg 87%
02:00 +12°C° 0.1 mm 4 mps 742 mmHg 88%
03:00 +11°C° 0.5 mm 4 mps 742 mmHg 90%
04:00 +11°C° 0.5 mm 4 mps 742 mmHg 93%
05:00 +11°C° 0.5 mm 4 mps 742 mmHg 95%
06:00 +12°C° 0.7 mm 4 mps 742 mmHg 95%
07:00 +12°C° 0.7 mm 4 mps 742 mmHg 95%
08:00 +12°C° 0.7 mm 4 mps 742 mmHg 95%
09:00 +13°C° 0.2 mm 5 mps 742 mmHg 89%
10:00 +13°C° 0.2 mm 5 mps 742 mmHg 84%
11:00 +14°C° 0.2 mm 6 mps 742 mmHg 78%
12:00 +14°C° 0.2 mm 6 mps 742 mmHg 75%
13:00 +14°C° 0.2 mm 7 mps 742 mmHg 72%
14:00 +14°C° 0.2 mm 7 mps 743 mmHg 69%
15:00 +12°C° 0.1 mm 7 mps 743 mmHg 72%
16:00 +11°C° 0.1 mm 6 mps 743 mmHg 75%
17:00 +10°C° 0.1 mm 5 mps 743 mmHg 78%
18:00 +9°C° 0.1 mm 5 mps 743 mmHg 78%
19:00 +9°C° 0.1 mm 5 mps 743 mmHg 79%
20:00 +8°C° 0.1 mm 6 mps 744 mmHg 79%
21:00 +8°C° 0 mm 6 mps 744 mmHg 79%
22:00 +7°C° 0 mm 6 mps 745 mmHg 79%
23:00 +7°C° 0 mm 6 mps 745 mmHg 79%

25 October, Sunday

Time Temperature Precipitation Wind Pressure Humidity
00:00 +6°C° 0 mm 5 mps 745 mmHg 81%
01:00 +6°C° 0 mm 5 mps 745 mmHg 83%
02:00 +5°C° 0 mm 5 mps 746 mmHg 85%
03:00 +5°C° 0 mm 5 mps 746 mmHg 86%
04:00 +5°C° 0 mm 4 mps 746 mmHg 87%
05:00 +5°C° 0 mm 4 mps 746 mmHg 88%
06:00 +5°C° 0 mm 4 mps 747 mmHg 88%
07:00 +4°C° 0 mm 4 mps 747 mmHg 89%
08:00 +4°C° 0 mm 4 mps 747 mmHg 90%
09:00 +6°C° 0 mm 4 mps 747 mmHg 84%
10:00 +7°C° 0 mm 4 mps 747 mmHg 79%
11:00 +8°C° 0 mm 4 mps 748 mmHg 73%
12:00 +10°C° 0 mm 4 mps 748 mmHg 70%
13:00 +10°C° 0 mm 4 mps 748 mmHg 67%
14:00 +11°C° 0 mm 4 mps 748 mmHg 64%
15:00 +10°C° 0 mm 3 mps 748 mmHg 68%
16:00 +9°C° 0 mm 2 mps 748 mmHg 72%
17:00 +9°C° 0 mm 1 mps 747 mmHg 75%
18:00 +9°C° 0 mm 1 mps 748 mmHg 78%
19:00 +8°C° 0 mm 1 mps 748 mmHg 80%
20:00 +6°C° 0 mm 0 mps 748 mmHg 83%
21:00 +7°C° 0 mm 1 mps 748 mmHg 84%
22:00 +7°C° 0 mm 1 mps 748 mmHg 86%
23:00 +6°C° 0 mm 1 mps 748 mmHg 87%

26 October, Monday

Time Temperature Precipitation Wind Pressure Humidity
00:00 +5°C° 0 mm 2 mps 748 mmHg 88%
01:00 +5°C° 0 mm 2 mps 748 mmHg 90%
02:00 +5°C° 0 mm 2 mps 747 mmHg 91%
03:00 +3°C° 0 mm 3 mps 747 mmHg 92%
04:00 +3°C° 0 mm 3 mps 747 mmHg 92%
05:00 +3°C° 0 mm 3 mps 747 mmHg 93%
06:00 +3°C° 0 mm 3 mps 747 mmHg 92%
07:00 +3°C° 0 mm 3 mps 746 mmHg 91%
08:00 +4°C° 0 mm 4 mps 746 mmHg 91%
09:00 +5°C° 0 mm 4 mps 746 mmHg 83%
10:00 +7°C° 0 mm 5 mps 746 mmHg 76%
11:00 +8°C° 0 mm 6 mps 746 mmHg 69%
12:00 +9°C° 0 mm 6 mps 745 mmHg 67%
13:00 +10°C° 0 mm 6 mps 745 mmHg 65%
14:00 +11°C° 0 mm 6 mps 745 mmHg 62%
15:00 +10°C° 0 mm 6 mps 744 mmHg 67%
16:00 +9°C° 0 mm 5 mps 744 mmHg 71%
17:00 +8°C° 0 mm 5 mps 743 mmHg 76%
18:00 +8°C° 0 mm 5 mps 743 mmHg 77%
19:00 +7°C° 0 mm 5 mps 743 mmHg 78%
20:00 +7°C° 0 mm 5 mps 743 mmHg 79%
21:00 +7°C° 0 mm 5 mps 743 mmHg 80%
22:00 +6°C° 0 mm 4 mps 743 mmHg 81%
23:00 +6°C° 0 mm 4 mps 743 mmHg 81%
Show more